Location: Newark
(48.4472°N, 1.4892°E)
Time: 04:17:44
(UTC+00:00)

Transit 4A - Pass Details

Date: 30 November 2019
Orbit: 870 x 975 km, 66.8° (Epoch: 11 December)

Event Time Altitude Azimuth Distance (km) Brightness Sun altitude
Rises 20:22:18 0° 236° (SW) 3,614 11.4 -42.2°
Reaches altitude 10° 20:25:00 10° 242° (WSW) 2,658 10.7 -42.6°
Enters shadow 20:26:24 17° 248° (WSW) 2,183 10.2 -42.9°
